| time (UTC) | temp C | wind direction | speed KPH | gust KPH | rain 1hr cm | rain 24hr cm | rain mn cm | humidity % | barometer mb |
| 20260505200806 | 15 | 334 | 4.8 | 9.7 | 0.00 | 0.00 | 0.00 | 56 | 1002.9 |
| 20260505200306 | 15 | 60 | 3.2 | 12.9 | 0.00 | 0.00 | 0.00 | 57 | 1002.8 |
| 20260505180806 | 13 | 305 | 3.2 | 8.0 | 0.00 | 0.00 | 0.00 | 60 | 1003.5 |
| 20260505180308 | 12 | 350 | 1.6 | 9.7 | 0.00 | 0.00 | 0.00 | 60 | 1003.5 |
| 20260505170807 | 11 | 52 | 1.6 | 8.0 | 0.00 | 0.00 | 0.00 | 62 | 1003.5 |
| 20260505170307 | 11 | 24 | 1.6 | 11.3 | 0.00 | 0.00 | 0.00 | 61 | 1003.5 |
| 20260505160805 | 9 | 297 | 4.8 | 9.7 | 0.00 | 0.00 | 0.00 | 66 | 1003.6 |
| 20260505160306 | 9 | 334 | 4.8 | 11.3 | 0.00 | 0.00 | 0.00 | 66 | 1003.7 |
| 20260505150806 | 8 | 23 | 3.2 | 8.0 | 0.00 | 0.00 | 0.00 | 66 | 1004.1 |
| 20260505150307 | 8 | 23 | 3.2 | 9.7 | 0.00 | 0.00 | 0.00 | 65 | 1004.1 |
| 20260505130306 | 8 | 36 | 3.2 | 11.3 | 0.00 | 0.00 | 0.00 | 66 | 1004.2 |
| 20260505120806 | 8 | 54 | 4.8 | 9.7 | 0.00 | 0.00 | 0.00 | 66 | 1005.1 |
| 20260505120307 | 8 | 14 | 3.2 | 11.3 | 0.00 | 0.00 | 0.00 | 66 | 1005.3 |
| 20260505110807 | 10 | 30 | 4.8 | 8.0 | 0.00 | 0.00 | 0.00 | 64 | 1005.9 |
| 20260505100807 | 10 | 298 | 4.8 | 12.9 | 0.00 | 0.00 | 0.00 | 62 | 1006.4 |
| 20260505100306 | 10 | 338 | 6.4 | 12.9 | 0.00 | 0.00 | 0.00 | 62 | 1006.4 |
| 20260505090807 | 11 | 35 | 4.8 | 9.7 | 0.00 | 0.00 | 0.00 | 61 | 1006.7 |
| 20260505090307 | 11 | 10 | 3.2 | 12.9 | 0.00 | 0.00 | 0.00 | 60 | 1006.8 |
| 20260505080806 | 10 | 355 | 4.8 | 14.5 | 0.00 | 0.00 | 0.00 | 61 | 1007.4 |
| 20260505080306 | 10 | 275 | 4.8 | 14.5 | 0.00 | 0.00 | 0.00 | 62 | 1007.5 |
| 20260505070308 | 11 | 328 | 4.8 | 11.3 | 0.00 | 0.00 | 0.00 | 62 | 1008.7 |
| 20260505060805 | 11 | 324 | 3.2 | 11.3 | 0.00 | 0.00 | 0.00 | 61 | 1009.1 |
| 20260505060306 | 11 | 332 | 3.2 | 11.3 | 0.00 | 0.00 | 0.00 | 61 | 1009.1 |
| 20260505050805 | 12 | 156 | 1.6 | 4.8 | 0.00 | 0.00 | 0.00 | 59 | 1009.7 |
| 20260505040805 | 13 | 13 | 0.0 | 3.2 | 0.00 | 0.00 | 0.00 | 56 | 1010.1 |
| 20260505040306 | 14 | 354 | 0.0 | 8.0 | 0.00 | 0.00 | 0.00 | 55 | 1010.1 |
| 20260505030806 | 15 | 29 | 0.0 | 3.2 | 0.00 | 0.00 | 0.00 | 53 | 1010.4 |
| 20260505030305 | 15 | 23 | 1.6 | 9.7 | 0.00 | 0.00 | 0.00 | 52 | 1010.3 |
| 20260505020807 | 16 | 75 | 1.6 | 4.8 | 0.00 | 0.00 | 0.00 | 51 | 1011.1 |
| 20260505010806 | 17 | 99 | 3.2 | 11.3 | 0.00 | 0.00 | 0.00 | 50 | 1011.6 |
| 20260505000805 | 17 | 81 | 3.2 | 8.0 | 0.00 | 0.00 | 0.00 | 49 | 1012.6 |
| 20260505000305 | 17 | 77 | 4.8 | 14.5 | 0.00 | 0.00 | 0.00 | 49 | 1012.7 |
| 20260504230805 | 17 | 36 | 3.2 | 11.3 | 0.00 | 0.00 | 0.00 | 49 | 1013.4 |
| 20260504230305 | 17 | 67 | 3.2 | 14.5 | 0.00 | 0.00 | 0.00 | 50 | 1013.4 |
| 20260504220806 | 16 | 39 | 3.2 | 8.0 | 0.00 | 0.00 | 0.00 | 50 | 1014.4 |
| 20260504220306 | 16 | 30 | 3.2 | 12.9 | 0.00 | 0.00 | 0.00 | 52 | 1014.5 |
| 20260504210805 | 15 | 316 | 1.6 | 8.0 | 0.00 | 0.00 | 0.00 | 54 | 1015.4 |
| 20260504210306 | 15 | 41 | 3.2 | 9.7 | 0.00 | 0.00 | 0.00 | 54 | 1015.4 |